OBJECT J, 62385

Orbit data source: Space-Track

You're viewing an Uncataloged Satellite

Recently launched and/or uncataloged satellites may have evolving metadata. Metadata may include but not limited to: Owner, Maufacturer, Bus, Motor, and Mission.

OBJECT J, 62385 is a satellite in LEO that was launched on Sat, 21 Dec 2024 UTC via an FALCON 9 launch vehicle from the Air Force Western Test Range (AFWTR). Unknown objects in Earth's orbit typically refer to objects detected orbiting the Earth but have not yet been identified or cataloged. These objects could be anything from previously untracked satellites, spent rocket stages, debris from satellite collisions, or even natural meteoroids temporarily captured by Earth's gravity.

Loading next visibility...
Identifier
62385, 2024-247J
Orbit
LEO
Country
Flag of TBDTBD
Related business
None
Manufacturer
ONDO Space
Mission
Operational Commercial Communications
Bus & Motor
CUBESAT 0.5U, Unknown motor
Mass
0.25 kg wet, 0.25 kg dry
Launch date (UTC)
2024-12-21 (8 months ago)
Launch vehicle
FALCON 9
Launch site
Air Force Western Test Range (AFWTR)
Object type
Unknown
Shape & HBR
Box, 0.0 m
Radar Cross Section
0.004 m², Small (<0.1 m²)

Expand to show TLE details & history
Last TLE update: 4 days ago

TLE from 4 days ago
0 OBJECT J
1 62385U 24247J   25238.28917549  .00017194  00000-0  58844-3 0  9992
2 62385  45.0022  92.8792 0006076 234.9241 125.1074 15.30061072 37982
Epoch: 2025-08-26T06:56Z
TLE epoch observation values (Epoch: 2025-08-26T06:56:24.762Z)
Latitude
0.00002°
Longitude
13.99302°
Altitude
478.025 km
Speed
7.627 km/s
True Right ascension
06h 11m 31s
True Declination
0° 00' 00"
Sunlit
Object was in daylight at epoch
Visualization orbit readout
Latitude
Unknown
Longitude
Unknown
Altitude
Unknown
Speed
Unknown
Apparent Right ascension
Unknown
Apparent Declination
Unknown
Sunlit
N/A
Visualization observer readout
Local Sidereal Time
16:55:19
Azimuth
Unknown
Elevation
Unknown
Doppler factor
Unknown
Orbital elements
Apogee altitude
481.406 km
Perigee altitude
473.075 km
Semi-major axis
6,855.378 km
Eccentricity
0.00061
Inclination
45.0022°
RAAN
92.8792°
Arg. of periapsis
234.9241°
True anomaly
125.16433°
Mean anomaly
125.1074°
Eccentric anomaly
125.13587°
Mean motion
3.82381 °/min
Orbital period
94.15 mins
BSTAR
0.00058844
Loading maneuver chart data...
Computing Atmospheric mass density...
Loading historical data...
Loading historical data...
Loading historical data...
Loading historical data...
Loading historical data...
Loading historical data...
Loading historical data...

Documentation

Showing up to 5 results
|